﻿_id,日時,平均風速(m/s),平均風向,最大瞬間風速(m/s),最大風速時風向,気温(℃),湿度(%),10分間移動積算雨量(mm),1時間移動積算雨量(mm),日雨量(mm),累計雨量(mm),日射(日積算)(MJ/m2),日照(日積算)(min),現地気圧(hPa),海面気圧(hPa)
1,2024-05-13T00:00:00,0.6,南南東,2.3,東南東,17.6,98.5,2.5,8.5,15,15,5.46,3,995.9,1009.5
2,2024-05-13T00:01:00,0.6,南南東,2.3,東南東,17.6,98.5,2.5,8.5,0,15,0,0,995.8,1009.4
3,2024-05-13T00:02:00,0.6,南南東,2.3,東南東,17.6,98.5,3,9,0.5,15.5,0,0,995.8,1009.4
4,2024-05-13T00:03:00,0.6,南南東,2.3,東南東,17.6,98.5,2.5,8.5,0.5,15.5,0,0,995.8,1009.4
5,2024-05-13T00:04:00,0.6,南南東,2.3,東南東,17.6,98.6,2.5,8.5,0.5,15.5,0,0,995.8,1009.4
6,2024-05-13T00:05:00,0.6,南東,2.3,東南東,17.6,98.6,3,9,1,16,0,0,995.8,1009.4
7,2024-05-13T00:06:00,0.7,南東,2.3,東南東,17.6,98.6,2.5,9,1,16,0,0,995.7,1009.3
8,2024-05-13T00:07:00,0.6,南東,1.8,南東,17.6,98.6,2.5,9,1,16,0,0,995.7,1009.3
9,2024-05-13T00:08:00,0.6,南東,1.8,南東,17.6,98.6,2.5,9.5,1.5,16.5,0,0,995.7,1009.3
10,2024-05-13T00:09:00,0.6,南東,1.8,南東,17.6,98.6,2,9.5,1.5,16.5,0,0,995.7,1009.3
11,2024-05-13T00:10:00,0.6,南南東,1.8,南東,17.6,98.6,1.5,9.5,1.5,16.5,0,0,995.7,1009.3
12,2024-05-13T00:11:00,0.6,南南東,1.6,東南東,17.6,98.6,2,10,2,17,0,0,995.7,1009.3
13,2024-05-13T00:12:00,0.5,南南東,1.6,東南東,17.6,98.6,1.5,9.5,2,17,0,0,995.6,1009.2
14,2024-05-13T00:13:00,0.5,南南東,1.6,東南東,17.6,98.6,2,10,2.5,17.5,0,0,995.6,1009.2
15,2024-05-13T00:14:00,0.5,南南東,1.6,東南東,17.6,98.7,2,10,2.5,17.5,0,0,995.5,1009.1
16,2024-05-13T00:15:00,0.4,南南東,1.6,東南東,17.7,98.7,2,10.5,3,18,0,0,995.6,1009.2
17,2024-05-13T00:16:00,0.4,南南東,1.5,南,17.6,98.7,2,10,3,18,0,0,995.5,1009.1
18,2024-05-13T00:17:00,0.4,南南東,1.5,南,17.6,98.6,2,10,3,18,0,0,995.4,1009
19,2024-05-13T00:18:00,0.4,南東,1.5,南,17.6,98.7,2,10.5,3.5,18.5,0,0,995.4,1009
20,2024-05-13T00:19:00,0.4,南東,1.5,南,17.6,98.7,2,10.5,3.5,18.5,0,0,995.4,1009
21,2024-05-13T00:20:00,0.3,南東,1.4,東,17.5,98.7,2,10,3.5,18.5,0,0,995.4,1009
22,2024-05-13T00:21:00,0.3,東南東,1.9,東北東,17.6,98.7,2,10.5,4,19,0,0,995.3,1008.9
23,2024-05-13T00:22:00,0.3,東南東,1.9,東北東,17.5,98.7,2,10.5,4,19,0,0,995.4,1009
24,2024-05-13T00:23:00,0.4,東南東,1.9,東北東,17.5,98.7,2,10.5,4.5,19.5,0,0,995.3,1008.9
25,2024-05-13T00:24:00,0.4,東南東,1.9,東北東,17.6,98.7,2,10.5,4.5,19.5,0,0,995.3,1008.9
26,2024-05-13T00:25:00,0.4,東南東,1.9,東北東,17.6,98.8,1.5,10.5,4.5,19.5,0,0,995.3,1008.9
27,2024-05-13T00:26:00,0.4,東南東,1.9,東北東,17.6,98.7,2,10.5,5,20,0,0,995.2,1008.8
28,2024-05-13T00:27:00,0.4,東南東,1.9,東北東,17.6,98.7,2,10.5,5,20,0,0,995.2,1008.8
29,2024-05-13T00:28:00,0.4,東南東,1.9,東北東,17.6,98.7,1.5,10.5,5,20,0,0,995.2,1008.8
30,2024-05-13T00:29:00,0.4,東南東,1.9,東北東,17.6,98.7,1.5,10,5,20,0,0,995.2,1008.8
31,2024-05-13T00:30:00,0.4,南東,1.9,東北東,17.6,98.7,2,10.5,5.5,20.5,0,0,995.2,1008.8
32,2024-05-13T00:31:00,,"",,"",,,,,,,,,,
33,2024-05-13T00:32:00,0.3,南東,1.2,南東,17.7,98.9,1.5,10.5,5.5,20.5,0,0,995.2,1008.8
34,2024-05-13T00:33:00,0.2,静穏,1.2,南東,17.6,98.8,1,10.5,5.5,20.5,0,0,995.1,1008.7
35,2024-05-13T00:34:00,0.2,静穏,1.2,南東,17.6,98.8,1,10,5.5,20.5,0,0,995,1008.6
36,2024-05-13T00:35:00,0.2,静穏,1.2,南東,17.6,98.8,1.5,10.5,6,21,0,0,995.1,1008.7
37,2024-05-13T00:36:00,0.2,静穏,1.2,南東,17.5,98.7,1,10.5,6,21,0,0,995.1,1008.7
38,2024-05-13T00:37:00,0.2,静穏,1.1,東,17.6,98.8,1,10.5,6,21,0,0,995,1008.6
39,2024-05-13T00:38:00,0.1,静穏,0.6,南,17.6,98.8,1,10,6,21,0,0,995,1008.6
40,2024-05-13T00:39:00,0.1,静穏,0.6,南,17.6,98.8,1,10,6,21,0,0,995,1008.6
41,2024-05-13T00:40:00,0.1,静穏,0.5,東,17.6,98.8,0.5,10,6,21,0,0,994.9,1008.5
42,2024-05-13T00:41:00,0.1,静穏,0.7,南,17.6,98.8,0.5,10,6,21,0,0,994.9,1008.5
43,2024-05-13T00:42:00,0.1,静穏,0.7,南,17.7,98.8,1,10,6.5,21.5,0,0,994.9,1008.5
44,2024-05-13T00:43:00,0.1,静穏,0.7,南,17.6,98.8,1,10,6.5,21.5,0,0,994.9,1008.5
45,2024-05-13T00:44:00,0.1,静穏,0.7,南,17.6,98.7,1,10,6.5,21.5,0,0,994.9,1008.5
46,2024-05-13T00:45:00,0.1,静穏,1.1,南,17.6,98.7,0.5,10,6.5,21.5,0,0,994.8,1008.4
47,2024-05-13T00:46:00,0.2,静穏,1.1,南,17.7,98.7,0.5,9.5,6.5,21.5,0,0,994.8,1008.4
48,2024-05-13T00:47:00,0.2,静穏,1.1,南,17.8,98.8,0.5,9.5,6.5,21.5,0,0,994.8,1008.4
49,2024-05-13T00:48:00,0.2,静穏,1.1,南,17.8,98.7,0.5,9.5,6.5,21.5,0,0,994.9,1008.5
50,2024-05-13T00:49:00,0.3,南南東,1.1,南,17.7,98.7,0.5,9,6.5,21.5,0,0,994.9,1008.5
51,2024-05-13T00:50:00,0.3,南南西,1.1,南,17.6,98.6,0.5,9,6.5,21.5,0,0,994.8,1008.4
52,2024-05-13T00:51:00,0.3,南西,1.1,南,17.8,98.7,0.5,9,6.5,21.5,0,0,994.8,1008.4
53,2024-05-13T00:52:00,0.4,南西,1.1,南,17.8,98.8,0,9,6.5,21.5,0,0,994.8,1008.4
54,2024-05-13T00:53:00,0.4,西南西,1.1,南,17.8,98.9,0.5,9,7,22,0,0,994.7,1008.3
55,2024-05-13T00:54:00,0.5,西南西,1.1,南,17.6,98.8,0.5,9,7,22,0,0,994.8,1008.4
56,2024-05-13T00:55:00,0.5,西,1.5,西,17.7,98.8,0.5,9,7,22,0,0,994.7,1008.3
57,2024-05-13T00:56:00,0.6,西,1.5,西,17.7,98.9,0.5,8.5,7,22,0,0,994.8,1008.4
58,2024-05-13T00:57:00,0.6,西,1.5,西,17.7,98.9,0.5,8.5,7,22,0,0,994.7,1008.3
59,2024-05-13T00:58:00,0.6,西,1.5,西,17.6,98.9,0.5,8,7,22,0,0,994.7,1008.3
60,2024-05-13T00:59:00,0.6,西,1.5,西,17.6,98.8,0.5,7.5,7,22,0,0,994.8,1008.4
61,2024-05-13T01:00:00,0.7,西,1.5,西,17.6,98.8,0.5,7,7,22,0,0,994.8,1008.4
62,2024-05-13T01:01:00,0.7,西,1.5,西,17.7,98.9,0.5,7,7,22,0,0,994.7,1008.3
63,2024-05-13T01:02:00,0.8,西,1.5,西,17.7,98.9,0.5,6.5,7,22,0,0,994.7,1008.3
64,2024-05-13T01:03:00,0.8,西,1.6,北西,17.7,98.9,0,6.5,7,22,0,0,994.7,1008.3
65,2024-05-13T01:04:00,0.9,西,1.7,西,17.7,98.9,0,6.5,7,22,0,0,994.8,1008.4
66,2024-05-13T01:05:00,1,西,1.7,西,17.6,98.8,0,6,7,22,0,0,994.8,1008.4
67,2024-05-13T01:06:00,0.9,西,1.7,西,17.7,98.8,0.5,6.5,7.5,22.5,0,0,994.7,1008.3
68,2024-05-13T01:07:00,0.9,西,1.7,西,17.7,98.8,0.5,6.5,7.5,22.5,0,0,994.7,1008.3
69,2024-05-13T01:08:00,0.8,西,1.7,西,17.8,98.7,0.5,6,7.5,22.5,0,0,994.7,1008.3
70,2024-05-13T01:09:00,0.8,西北西,1.7,西,17.8,98.8,0.5,6,7.5,22.5,0,0,994.8,1008.4
71,2024-05-13T01:10:00,0.8,西北西,1.7,西,17.8,98.8,0.5,6,7.5,22.5,0,0,994.7,1008.3
72,2024-05-13T01:11:00,0.8,西北西,1.7,西,17.8,98.7,1,6,8,23,0,0,994.8,1008.4
73,2024-05-13T01:12:00,0.7,西北西,1.7,西,17.7,98.7,1,6,8,23,0,0,994.8,1008.4
74,2024-05-13T01:13:00,0.6,西,1.7,西,17.7,98.7,1,5.5,8,23,0,0,994.8,1008.4
75,2024-05-13T01:14:00,0.5,西,1.7,西南西,17.7,98.7,1,5.5,8,23,0,0,994.8,1008.4
76,2024-05-13T01:15:00,0.4,西北西,1.1,西,17.8,98.8,1,5,8,23,0,0,994.7,1008.3
77,2024-05-13T01:16:00,0.4,西北西,1.1,西,17.9,98.9,0.5,5,8,23,0,0,994.8,1008.4
78,2024-05-13T01:17:00,0.5,西北西,1.1,西,17.8,98.9,1,5.5,8.5,23.5,0,0,994.8,1008.4
79,2024-05-13T01:18:00,0.5,西,1.1,西,17.8,98.8,1,5,8.5,23.5,0,0,994.8,1008.4
80,2024-05-13T01:19:00,0.5,西,1.1,西,17.8,98.8,1,5,8.5,23.5,0,0,994.8,1008.4
81,2024-05-13T01:20:00,0.4,西北西,1.1,西,17.8,98.8,1,5,8.5,23.5,0,0,994.7,1008.3
82,2024-05-13T01:21:00,0.4,西北西,1.1,西,17.9,98.8,0.5,4.5,8.5,23.5,0,0,994.7,1008.3
83,2024-05-13T01:22:00,0.4,北西,1.1,西,17.9,98.9,0.5,4.5,8.5,23.5,0,0,994.7,1008.3
84,2024-05-13T01:23:00,0.3,北西,1,西,18,98.8,1,4.5,9,24,0,0,994.7,1008.3
85,2024-05-13T01:24:00,0.3,北西,0.9,西,17.8,98.8,1,4.5,9,24,0,0,994.7,1008.3
86,2024-05-13T01:25:00,0.3,北西,0.9,西,17.7,98.6,1,4.5,9,24,0,0,994.7,1008.3
87,2024-05-13T01:26:00,0.3,北西,1,西,17.8,98.7,1,4,9,24,0,0,994.6,1008.2
88,2024-05-13T01:27:00,0.2,静穏,1,西,17.7,98.8,0.5,4,9,24,0,0,994.7,1008.3
89,2024-05-13T01:28:00,0.2,静穏,1,西,17.8,98.8,0.5,4,9,24,0,0,994.7,1008.3
90,2024-05-13T01:29:00,0.2,静穏,1,西,17.8,98.8,1,4.5,9.5,24.5,0,0,994.6,1008.2
91,2024-05-13T01:30:00,0.2,静穏,1,西,17.9,98.8,1,4,9.5,24.5,0,0,994.6,1008.2
92,2024-05-13T01:31:00,0.2,静穏,1,西,18.1,99,1,4,9.5,24.5,0,0,994.5,1008.1
93,2024-05-13T01:32:00,0.2,静穏,1,西,18.1,98.9,1,4,9.5,24.5,0,0,994.6,1008.2
94,2024-05-13T01:33:00,0.2,静穏,1,西,18,98.8,0.5,4,9.5,24.5,0,0,994.6,1008.2
95,2024-05-13T01:34:00,0.2,静穏,1.7,東北東,17.8,98.6,0.5,4,9.5,24.5,0,0,994.6,1008.2
96,2024-05-13T01:35:00,0.4,北東,2.1,東北東,17.9,98.6,0.5,3.5,9.5,24.5,0,0,994.5,1008.1
97,2024-05-13T01:36:00,0.4,北東,2.1,東北東,18,98.8,0.5,3.5,9.5,24.5,0,0,994.5,1008.1
98,2024-05-13T01:37:00,0.4,東北東,2.1,東北東,18,98.8,0.5,3.5,9.5,24.5,0,0,994.6,1008.2
99,2024-05-13T01:38:00,0.4,東,2.1,東北東,17.9,98.8,1,4,10,25,0,0,994.6,1008.2
100,2024-05-13T01:39:00,0.5,東,2.1,東北東,17.7,98.6,0.5,4,10,25,0,0,994.6,1008.2
101,2024-05-13T01:40:00,0.7,東北東,2.8,東北東,17.9,98.7,0.5,4,10,25,0,0,994.5,1008.1
102,2024-05-13T01:41:00,0.8,東北東,2.8,東北東,17.8,98.8,0.5,4,10,25,0,0,994.5,1008.1
103,2024-05-13T01:42:00,1,東北東,2.8,東北東,17.9,98.7,0.5,3.5,10,25,0,0,994.5,1008.1
104,2024-05-13T01:43:00,1,東北東,2.8,東北東,17.8,98.8,0.5,3.5,10,25,0,0,994.5,1008.1
105,2024-05-13T01:44:00,1,東北東,2.8,東北東,17.8,98.8,0.5,3.5,10,25,0,0,994.5,1008.1
106,2024-05-13T01:45:00,0.9,東,2.8,東北東,17.8,98.8,0.5,3.5,10,25,0,0,994.6,1008.2
107,2024-05-13T01:46:00,0.9,東,2.8,東北東,17.8,98.8,0.5,3.5,10,25,0,0,994.5,1008.1
108,2024-05-13T01:47:00,0.9,東,2.8,東北東,17.8,98.8,0.5,3.5,10,25,0,0,994.4,1008
109,2024-05-13T01:48:00,0.9,東,2.8,東北東,17.7,98.8,0.5,4,10.5,25.5,0,0,994.5,1008.1
110,2024-05-13T01:49:00,0.8,東,2.8,東北東,17.7,98.8,0.5,4,10.5,25.5,0,0,994.5,1008.1
111,2024-05-13T01:50:00,0.7,東南東,4.1,北西,17.8,98.9,0.5,4,10.5,25.5,0,0,994.5,1008.1
112,2024-05-13T01:51:00,0.8,南東,5.1,西,17.9,99,0.5,4,10.5,25.5,0,0,994.5,1008.1
113,2024-05-13T01:52:00,0.7,南南東,5.1,西,17.9,98.9,0.5,4,10.5,25.5,0,0,994.4,1008
114,2024-05-13T01:53:00,1,南,5.5,南,18,99,0.5,3.5,10.5,25.5,0,0,994.4,1008
115,2024-05-13T01:54:00,1.2,南南西,5.5,南,18.1,99.1,0.5,3.5,10.5,25.5,0,0,994.4,1008
116,2024-05-13T01:55:00,1.3,南,5.5,南,18.1,99,0.5,3.5,10.5,25.5,0,0,994.4,1008
117,2024-05-13T01:56:00,1.3,南,5.5,南,18.1,98.9,0.5,3.5,10.5,25.5,0,0,994.4,1008
118,2024-05-13T01:57:00,1.4,南,5.5,南,18.1,98.8,0.5,3.5,10.5,25.5,0,0,994.4,1008
119,2024-05-13T01:58:00,1.4,南,5.5,南,18,98.8,0,3.5,10.5,25.5,0,0,994.4,1008
120,2024-05-13T01:59:00,1.5,南,5.5,南,17.9,98.6,0.5,4,11,26,0,0,994.3,1007.9
121,2024-05-13T02:00:00,1.5,南南東,5.5,南,17.9,98.7,0.5,4,11,26,0,0,994.4,1008
122,2024-05-13T02:01:00,1.4,南東,5.5,南,17.9,98.7,0.5,4,11,26,0,0,994.4,1008
123,2024-05-13T02:02:00,1.4,南東,5.5,南,18,98.8,0.5,4,11,26,0,0,994.4,1008
124,2024-05-13T02:03:00,1.1,南東,4,南南西,17.9,98.8,0.5,4,11,26,0,0,994.4,1008
125,2024-05-13T02:04:00,0.9,南東,3,南南西,18.1,98.9,0.5,4,11,26,0,0,994.4,1008
126,2024-05-13T02:05:00,0.9,南東,2.6,南東,18.2,98.9,0.5,4,11,26,0,0,994.4,1008
127,2024-05-13T02:06:00,1,南東,2.6,南東,18.2,99,0.5,3.5,11,26,0,0,994.4,1008
128,2024-05-13T02:07:00,1.1,南東,2.9,南南東,18.2,98.9,0.5,3.5,11,26,0,0,994.4,1008
129,2024-05-13T02:08:00,1.1,南東,2.9,南南東,18.1,98.9,0.5,3.5,11,26,0,0,994.4,1008
130,2024-05-13T02:09:00,1.1,南南東,2.9,南南東,18.2,98.9,0,3.5,11,26,0,0,994.3,1007.9
131,2024-05-13T02:10:00,1.2,南南東,2.9,南南東,18.2,98.9,0,3.5,11,26,0,0,994.3,1007.9
132,2024-05-13T02:11:00,1.2,南南東,2.9,南南東,18.3,98.9,0,3,11,26,0,0,994.3,1007.9
133,2024-05-13T02:12:00,1.2,南南東,2.9,南南東,18.3,98.9,0,3,11,26,0,0,994.3,1007.9
134,2024-05-13T02:13:00,1.2,南南東,2.9,南南東,18.3,98.8,0,3,11,26,0,0,994.4,1008
135,2024-05-13T02:14:00,1.2,南南東,2.9,南南東,18.2,98.8,0,3,11,26,0,0,994.4,1008
136,2024-05-13T02:15:00,1.2,南南東,3.3,南南西,18.3,98.8,0,3,11,26,0,0,994.3,1007.9
137,2024-05-13T02:16:00,1.2,南南東,3.3,南南西,18.3,98.8,0,3,11,26,0,0,994.3,1007.9
138,2024-05-13T02:17:00,1.3,南南東,3.3,南南西,18.3,98.8,0,2.5,11,26,0,0,994.3,1007.9
139,2024-05-13T02:18:00,1.2,南南東,3.3,南南西,18.3,98.8,0.5,3,11.5,26.5,0,0,994.3,1007.9
140,2024-05-13T02:19:00,1.3,南南東,3.3,南南西,18.3,98.8,0.5,3,11.5,26.5,0,0,994.3,1007.9
141,2024-05-13T02:20:00,1.2,南南東,3.3,南南西,18.3,98.8,0.5,3,11.5,26.5,0,0,994.2,1007.8
142,2024-05-13T02:21:00,1.3,南南東,3.3,南南西,18.3,98.8,0.5,3,11.5,26.5,0,0,994.2,1007.8
143,2024-05-13T02:22:00,1.4,南,3.3,南南西,18.4,98.8,0.5,3,11.5,26.5,0,0,994.2,1007.8
144,2024-05-13T02:23:00,1.4,南,3.3,南南西,18.4,98.7,0.5,2.5,11.5,26.5,0,0,994.2,1007.8
145,2024-05-13T02:24:00,1.4,南,3.3,南南西,18.4,98.7,0.5,2.5,11.5,26.5,0,0,994.3,1007.9
146,2024-05-13T02:25:00,1.3,南,3.3,南南西,18.4,98.7,0.5,2.5,11.5,26.5,0,0,994.2,1007.8
147,2024-05-13T02:26:00,1.2,南,3.3,南南西,18.5,98.7,0.5,2.5,11.5,26.5,0,0,994.2,1007.8
148,2024-05-13T02:27:00,1.1,南,3.1,南南西,18.5,98.7,0.5,2.5,11.5,26.5,0,0,994.2,1007.8
149,2024-05-13T02:28:00,1.2,南,3.7,南,18.4,98.6,0,2.5,11.5,26.5,0,0,994.2,1007.8
150,2024-05-13T02:29:00,1.3,南,3.9,南南東,18.5,98.6,0,2,11.5,26.5,0,0,994.2,1007.8
151,2024-05-13T02:30:00,1.3,南南東,3.9,南南東,18.5,98.5,0,2,11.5,26.5,0,0,994.2,1007.8
152,2024-05-13T02:31:00,1.2,南南東,3.9,南南東,18.4,98.5,0,2,11.5,26.5,0,0,994.2,1007.8
153,2024-05-13T02:32:00,1,南南東,3.9,南南東,18.4,98.5,0,2,11.5,26.5,0,0,994.2,1007.8
154,2024-05-13T02:33:00,1.1,南,3.9,南南東,18.4,98.5,0,2,11.5,26.5,0,0,994.2,1007.8
155,2024-05-13T02:34:00,1.2,南,3.9,南南東,18.4,98.5,0,2,11.5,26.5,0,0,994.2,1007.8
156,2024-05-13T02:35:00,1.1,南,3.9,南南東,18.4,98.5,0,2,11.5,26.5,0,0,994.3,1007.9
157,2024-05-13T02:36:00,1.1,南,3.9,南南東,18.4,98.5,0,2,11.5,26.5,0,0,994.3,1007.9
158,2024-05-13T02:37:00,1,南南東,3.9,南南東,18.4,98.5,0,2,11.5,26.5,0,0,994.3,1007.9
159,2024-05-13T02:38:00,0.9,南南東,3.9,南南東,18.4,98.5,0.5,2,12,27,0,0,994.3,1007.9
160,2024-05-13T02:39:00,0.6,南南東,2,南南東,18.4,98.5,0.5,2,12,27,0,0,994.3,1007.9
161,2024-05-13T02:40:00,0.6,南南東,1.8,南南西,18.5,98.6,0.5,2,12,27,0,0,994.3,1007.9
162,2024-05-13T02:41:00,0.6,南東,1.8,南南西,18.5,98.7,0.5,2,12,27,0,0,994.3,1007.9
163,2024-05-13T02:42:00,0.6,東南東,2,東北東,18.5,98.6,0.5,2,12,27,0,0,994.3,1007.9
164,2024-05-13T02:43:00,0.7,東,2.3,北北東,18.2,98.5,0.5,2,12,27,0,0,994.3,1007.9
165,2024-05-13T02:44:00,0.7,東北東,2.8,北北東,18.2,98.5,0.5,2,12,27,0,0,994.3,1007.9
166,2024-05-13T02:45:00,0.9,東北東,2.8,北北東,18.2,98.5,0.5,2,12,27,0,0,994.3,1007.9
167,2024-05-13T02:46:00,1.1,北東,3.6,北,18.2,98.6,0.5,2,12,27,0,0,994.3,1007.9
168,2024-05-13T02:47:00,1.4,北東,3.6,北,18.2,98.7,0.5,2,12,27,0,0,994.3,1007.9
169,2024-05-13T02:48:00,1.6,北東,3.6,北,18.2,98.8,0,1.5,12,27,0,0,994.3,1007.9
170,2024-05-13T02:49:00,1.8,北北東,3.6,北,18.2,98.8,0,1.5,12,27,0,0,994.4,1008
171,2024-05-13T02:50:00,2,北北東,3.6,北,18.2,98.8,0,1.5,12,27,0,0,994.3,1007.9
172,2024-05-13T02:51:00,2,北北東,3.6,北,18.2,98.8,0.5,2,12.5,27.5,0,0,994.3,1007.9
173,2024-05-13T02:52:00,2.1,北北東,3.6,北,18.2,98.9,0.5,2,12.5,27.5,0,0,994.4,1008
174,2024-05-13T02:53:00,2.3,北北東,3.7,北北東,18.1,98.8,0.5,2,12.5,27.5,0,0,994.4,1008
175,2024-05-13T02:54:00,2.3,北北東,3.7,北北東,18.1,98.8,0.5,2,12.5,27.5,0,0,994.4,1008
176,2024-05-13T02:55:00,2.3,北北東,3.7,北北東,18.1,98.9,0.5,2,12.5,27.5,0,0,994.4,1008
177,2024-05-13T02:56:00,2.3,北北東,3.7,北北東,18.1,98.8,0.5,2,12.5,27.5,0,0,994.4,1008
178,2024-05-13T02:57:00,2.1,北北東,3.7,北北東,18.1,98.9,0.5,2,12.5,27.5,0,0,994.4,1008
179,2024-05-13T02:58:00,2,北北東,3.7,北北東,18.1,98.9,0.5,2,12.5,27.5,0,0,994.4,1008
180,2024-05-13T02:59:00,1.9,北北東,3.7,北北東,18,98.9,0.5,1.5,12.5,27.5,0,0,994.4,1008
181,2024-05-13T03:00:00,1.7,北北東,3.7,北北東,18.1,98.9,0.5,1.5,12.5,27.5,0,0,994.3,1007.9
182,2024-05-13T03:01:00,1.7,北北東,3.7,北北東,18,98.9,0,1.5,12.5,27.5,0,0,994.3,1007.9
183,2024-05-13T03:02:00,1.7,北東,3.7,北北東,18,98.9,0,1.5,12.5,27.5,0,0,994.4,1008
184,2024-05-13T03:03:00,1.6,北東,3.5,北北東,17.9,99,0,1.5,12.5,27.5,0,0,994.4,1008
185,2024-05-13T03:04:00,1.6,北東,3.2,北北東,17.9,98.9,0,1.5,12.5,27.5,0,0,994.3,1007.9
186,2024-05-13T03:05:00,1.6,北東,3.2,北東,17.9,99,0,1.5,12.5,27.5,0,0,994.4,1008
187,2024-05-13T03:06:00,1.7,北東,3.3,北東,17.9,99,0,1.5,12.5,27.5,0,0,994.3,1007.9
188,2024-05-13T03:07:00,1.8,北東,3.7,北東,17.9,99,0,1.5,12.5,27.5,0,0,994.3,1007.9
189,2024-05-13T03:08:00,2,北東,3.7,北東,17.9,99,0,1.5,12.5,27.5,0,0,994.3,1007.9
190,2024-05-13T03:09:00,2.2,北東,3.7,北東,17.8,99,0.5,2,13,28,0,0,994.3,1007.9
191,2024-05-13T03:10:00,2.4,北東,4.3,北東,17.9,99,0.5,2,13,28,0,0,994.3,1007.9
192,2024-05-13T03:11:00,2.6,北東,4.5,北東,17.9,99,0.5,2,13,28,0,0,994.3,1007.9
193,2024-05-13T03:12:00,2.7,北東,4.6,北東,17.8,99,0.5,2,13,28,0,0,994.3,1007.9
194,2024-05-13T03:13:00,2.8,北東,4.7,北東,17.8,99,0.5,2,13,28,0,0,994.2,1007.8
195,2024-05-13T03:14:00,3,北東,4.7,北東,17.8,99,0.5,2,13,28,0,0,994.2,1007.8
196,2024-05-13T03:15:00,3.1,北東,4.8,北東,17.7,99,0.5,2,13,28,0,0,994.2,1007.8
197,2024-05-13T03:16:00,3.2,北東,4.8,北東,17.7,99,0.5,2,13,28,0,0,994.2,1007.8
198,2024-05-13T03:17:00,3.3,北東,4.8,北東,17.8,99.1,0.5,2,13,28,0,0,994.2,1007.8
199,2024-05-13T03:18:00,3.4,北東,4.8,北東,17.8,99.1,0.5,1.5,13,28,0,0,994.2,1007.8
200,2024-05-13T03:19:00,3.5,北東,4.8,北東,17.7,99.1,0,1.5,13,28,0,0,994.2,1007.8
201,2024-05-13T03:20:00,3.4,北東,4.8,北東,17.8,99,0,1.5,13,28,0,0,994.2,1007.8
202,2024-05-13T03:21:00,3.3,北東,4.8,北東,17.8,99,0,1.5,13,28,0,0,994.2,1007.8
203,2024-05-13T03:22:00,3.2,北東,4.8,北東,17.8,99.1,0,1.5,13,28,0,0,994.3,1007.9
204,2024-05-13T03:23:00,3.1,北東,4.8,北東,17.8,99,0,1.5,13,28,0,0,994.4,1008
205,2024-05-13T03:24:00,3,北東,4.8,北東,17.7,99,0,1.5,13,28,0,0,994.4,1008
206,2024-05-13T03:25:00,2.9,北東,4.7,北東,17.8,99,0,1.5,13,28,0,0,994.4,1008
207,2024-05-13T03:26:00,2.8,北北東,4.7,北東,17.8,99.1,0,1.5,13,28,0,0,994.4,1008
208,2024-05-13T03:27:00,2.7,北北東,4.7,北東,17.7,99,0,1.5,13,28,0,0,994.4,1008
209,2024-05-13T03:28:00,2.5,北北東,4.2,北,17.8,99,0,1.5,13,28,0,0,994.4,1008
210,2024-05-13T03:29:00,2.4,北北東,4.2,北,17.8,99,0,1.5,13,28,0,0,994.4,1008
211,2024-05-13T03:30:00,2.4,北北東,4.2,北,17.8,99,0.5,2,13.5,28.5,0,0,994.4,1008
212,2024-05-13T03:31:00,2.3,北北東,4.2,北,17.8,99,0.5,2,13.5,28.5,0,0,994.3,1007.9
213,2024-05-13T03:32:00,2.3,北北東,4.2,北,17.8,99,0.5,2,13.5,28.5,0,0,994.4,1008
214,2024-05-13T03:33:00,2.2,北北東,4.2,北,17.8,99,0.5,2,13.5,28.5,0,0,994.4,1008
215,2024-05-13T03:34:00,2.2,北北東,3.7,北北東,17.9,99.1,0.5,2,13.5,28.5,0,0,994.5,1008.1
216,2024-05-13T03:35:00,2.1,北北東,3.7,北北東,17.9,99.1,0.5,2,13.5,28.5,0,0,994.5,1008.1
217,2024-05-13T03:36:00,2.1,北北東,3.6,北東,17.9,99.1,0.5,2,13.5,28.5,0,0,994.6,1008.2
218,2024-05-13T03:37:00,2,北北東,3.7,北北東,17.9,99.1,0.5,2,13.5,28.5,0,0,994.6,1008.2
219,2024-05-13T03:38:00,1.9,北北東,3.7,北北東,17.9,99.1,0.5,1.5,13.5,28.5,0,0,994.7,1008.3
220,2024-05-13T03:39:00,1.8,北北東,3.7,北北東,17.9,99.1,0.5,1.5,13.5,28.5,0,0,994.7,1008.3
221,2024-05-13T03:40:00,1.6,北北東,3.7,北北東,17.9,99.1,0,1.5,13.5,28.5,0,0,994.7,1008.3
222,2024-05-13T03:41:00,1.5,北,3.7,北北東,17.9,99,0,1.5,13.5,28.5,0,0,994.7,1008.3
223,2024-05-13T03:42:00,1.3,北,3.7,北北東,17.9,99.1,0,1.5,13.5,28.5,0,0,994.8,1008.4
224,2024-05-13T03:43:00,1.2,北北西,3.7,北北東,17.9,99,0,1.5,13.5,28.5,0,0,994.8,1008.4
225,2024-05-13T03:44:00,1,北西,3.7,北北東,17.9,99,0,1.5,13.5,28.5,0,0,994.8,1008.4
226,2024-05-13T03:45:00,0.8,北西,3.7,北北東,17.9,99,0,1.5,13.5,28.5,0,0,994.8,1008.4
227,2024-05-13T03:46:00,0.6,西北西,3.7,北北東,18,99,0.5,2,14,29,0,0,994.8,1008.4
228,2024-05-13T03:47:00,0.3,西北西,2,北東,18,99,0.5,2,14,29,0,0,994.8,1008.4
229,2024-05-13T03:48:00,0.3,西北西,1.5,東北東,18,99,0.5,2,14,29,0,0,994.8,1008.4
230,2024-05-13T03:49:00,0.4,西北西,2.3,北東,18,99,0.5,2,14,29,0,0,994.8,1008.4
231,2024-05-13T03:50:00,0.6,北西,2.6,北北東,18,99,0.5,2,14,29,0,0,994.8,1008.4
232,2024-05-13T03:51:00,0.7,北北西,2.6,北北東,18,99,0.5,1.5,14,29,0,0,994.8,1008.4
233,2024-05-13T03:52:00,0.9,北,2.6,北北東,17.9,99,0.5,1.5,14,29,0,0,994.7,1008.3
234,2024-05-13T03:53:00,1,北北東,3.3,北北東,18.1,99,0.5,1.5,14,29,0,0,994.7,1008.3
235,2024-05-13T03:54:00,1.1,北北東,3.3,北北東,18.1,99.1,0.5,1.5,14,29,0,0,994.6,1008.2
236,2024-05-13T03:55:00,1.4,北北東,4.6,北北東,18.1,99,0.5,1.5,14,29,0,0,994.6,1008.2
237,2024-05-13T03:56:00,1.8,北東,5.4,北北東,18,98.9,0.5,2,14.5,29.5,0,0,994.7,1008.3
238,2024-05-13T03:57:00,2.2,北東,5.6,北北東,17.9,98.9,0.5,2,14.5,29.5,0,0,994.8,1008.4
239,2024-05-13T03:58:00,2.6,北北東,7.2,北,17.9,98.9,0.5,2,14.5,29.5,0,0,994.9,1008.5
240,2024-05-13T03:59:00,2.9,北北東,10.9,北,17.7,98.7,0.5,2,14.5,29.5,0,0,994.8,1008.4
241,2024-05-13T04:00:00,3.2,北北東,10.9,北,17.6,98.6,0.5,2,14.5,29.5,0,0,994.8,1008.4
242,2024-05-13T04:01:00,3.6,北北東,10.9,北,17.6,98.3,0.5,2,14.5,29.5,0,0,994.9,1008.5
243,2024-05-13T04:02:00,3.9,北,10.9,北,17.4,98.1,0.5,2,14.5,29.5,0,0,995,1008.6
244,2024-05-13T04:03:00,4.2,北,10.9,北,17.3,97.7,0.5,2,14.5,29.5,0,0,995,1008.6
245,2024-05-13T04:04:00,4.7,北,11.9,北北東,17.1,97.1,0.5,2,14.5,29.5,0,0,994.9,1008.5
246,2024-05-13T04:05:00,5,北,11.9,北北東,16.9,96.6,0.5,2,14.5,29.5,0,0,994.9,1008.6
247,2024-05-13T04:06:00,5.3,北,13.7,北,16.9,96.3,0.5,2.5,15,30,0,0,994.9,1008.6
248,2024-05-13T04:07:00,5.5,北,13.7,北,16.8,96,0.5,2.5,15,30,0,0,994.9,1008.6
249,2024-05-13T04:08:00,5.5,北,13.7,北,16.7,95.7,0.5,2.5,15,30,0,0,995,1008.7
250,2024-05-13T04:09:00,5.6,北,13.7,北,16.6,95.4,0.5,2,15,30,0,0,995.1,1008.8
251,2024-05-13T04:10:00,5.6,北,13.7,北,16.5,95.4,0.5,2,15,30,0,0,995.1,1008.8
252,2024-05-13T04:11:00,5.5,北,13.7,北,16.4,95.2,0.5,2,15,30,0,0,995.1,1008.8
253,2024-05-13T04:12:00,5.4,北,13.7,北,16.2,94.2,0.5,2,15,30,0,0,995.1,1008.8
254,2024-05-13T04:13:00,5.4,北,13.7,北,16.2,93.6,0.5,2,15,30,0,0,995.3,1009
255,2024-05-13T04:14:00,5.2,北,13.7,北,16.2,93.8,0.5,2,15,30,0,0,995.4,1009.1
256,2024-05-13T04:15:00,5.1,北,13.7,北,16.2,94,0.5,2,15,30,0,0,995.4,1009.1
257,2024-05-13T04:16:00,4.9,北,12.3,北北東,16.1,93.6,0,2,15,30,0,0,995.4,1009.1
258,2024-05-13T04:17:00,4.9,北,11.6,北,16,92.9,0,2,15,30,0,0,995.4,1009.1
259,2024-05-13T04:18:00,4.8,北,11.6,北,16,92.5,0,2,15,30,0,0,995.5,1009.2
260,2024-05-13T04:19:00,4.6,北,11.6,北,15.9,92.1,0,2,15,30,0,0,995.5,1009.2
261,2024-05-13T04:20:00,4.7,北,11.6,北,15.8,92.3,0,2,15,30,0,0,995.5,1009.2
262,2024-05-13T04:21:00,4.7,北,10.2,北,15.8,92.4,0,2,15,30,0,0,995.4,1009.1
263,2024-05-13T04:22:00,4.7,北北西,10.2,北,15.6,91.8,0,2,15,30,0,0,995.5,1009.2
264,2024-05-13T04:23:00,4.6,北,10.2,北,15.6,92.1,0,2,15,30,0,0,995.5,1009.2
265,2024-05-13T04:24:00,4.6,北,11.1,北北東,15.6,92.2,0,2,15,30,0,0,995.5,1009.2
266,2024-05-13T04:25:00,4.6,北,11.7,北北東,15.5,91.8,0,2,15,30,0,0,995.5,1009.2
267,2024-05-13T04:26:00,4.7,北,11.7,北北東,15.5,91.6,0,2,15,30,0,0,995.7,1009.4
268,2024-05-13T04:27:00,4.8,北,11.9,北,15.5,91.8,0,2,15,30,0,0,995.6,1009.3
269,2024-05-13T04:28:00,4.7,北,11.9,北,15.4,90.8,0,2,15,30,0,0,995.6,1009.3
270,2024-05-13T04:29:00,4.6,北,11.9,北,15.3,91.7,0.5,2.5,15.5,30.5,0,0,995.6,1009.3
271,2024-05-13T04:30:00,4.6,北,11.9,北,15.2,91.7,0.5,2,15.5,30.5,0,0,995.6,1009.3
272,2024-05-13T04:31:00,4.7,北,11.9,北,15.3,92.1,0.5,2,15.5,30.5,0,0,995.7,1009.4
273,2024-05-13T04:32:00,4.7,北,11.9,北,15.2,92.1,0.5,2,15.5,30.5,0,0,995.7,1009.5
274,2024-05-13T04:33:00,5,北,11.9,北,15.2,91.4,0.5,2,15.5,30.5,0,0,995.7,1009.5
275,2024-05-13T04:34:00,5,北,11.9,北,15.2,91.5,0.5,2,15.5,30.5,0,0,995.7,1009.5
276,2024-05-13T04:35:00,4.9,北北西,11.9,北,15.2,91.9,0.5,2,15.5,30.5,0,0,995.8,1009.6
277,2024-05-13T04:36:00,4.8,北北西,11.9,北,15.2,91.4,0.5,2,15.5,30.5,0,0,995.9,1009.7
278,2024-05-13T04:37:00,4.7,北北西,11.3,北,15.1,91.2,0.5,2,15.5,30.5,0,0,995.9,1009.7
279,2024-05-13T04:38:00,4.7,北北西,11.7,北北東,15.1,91.4,0.5,2,15.5,30.5,0,0,995.9,1009.7
280,2024-05-13T04:39:00,4.9,北北西,11.7,北北東,15,91.6,0,2,15.5,30.5,0,0,995.8,1009.6
281,2024-05-13T04:40:00,5,北,11.7,北北東,15,91.9,0,2,15.5,30.5,0,0,995.9,1009.7
282,2024-05-13T04:41:00,4.8,北北西,11.7,北北東,15,91.9,0,2,15.5,30.5,0,0,996,1009.8
283,2024-05-13T04:42:00,4.8,北北西,11.7,北北東,15,91.8,0,2,15.5,30.5,0,0,996,1009.8
284,2024-05-13T04:43:00,4.8,北,11.7,北北東,15.1,91.4,0,2,15.5,30.5,0,0,996.1,1009.9
285,2024-05-13T04:44:00,4.8,北,11.7,北北東,15,91.7,0,2,15.5,30.5,0,0,996.1,1009.9
286,2024-05-13T04:45:00,5.1,北,11.7,北北東,15,92.4,0,2,15.5,30.5,0,0,996.1,1009.9
287,2024-05-13T04:46:00,5.1,北,11.7,北北東,15,92.1,0,1.5,15.5,30.5,0,0,996.2,1010
288,2024-05-13T04:47:00,5,北,11.7,北北東,15,91.8,0,1.5,15.5,30.5,0,0,996.3,1010.1
289,2024-05-13T04:48:00,5,北,11.7,北北東,14.9,91.7,0,1.5,15.5,30.5,0,0,996.4,1010.2
290,2024-05-13T04:49:00,5,北北西,11.7,北北東,15,91.3,0,1.5,15.5,30.5,0,0,996.4,1010.2
291,2024-05-13T04:50:00,4.8,北北西,11.7,北北東,15,91.5,0,1.5,15.5,30.5,0,0,996.4,1010.2
292,2024-05-13T04:51:00,4.7,北北西,11.7,北北東,15,91.5,0,1.5,15.5,30.5,0,0,996.4,1010.2
293,2024-05-13T04:52:00,4.5,北北西,11.7,北北東,14.9,91.2,0,1.5,15.5,30.5,0,0,996.4,1010.2
294,2024-05-13T04:53:00,4.3,北北西,11.7,北北東,14.9,91.5,0,1.5,15.5,30.5,0,0,996.4,1010.2
295,2024-05-13T04:54:00,4.2,北北西,11.7,北北東,14.9,92.3,0,1.5,15.5,30.5,0,0,996.5,1010.3
296,2024-05-13T04:55:00,3.8,北北西,8.6,北西,14.9,92.2,0,1.5,15.5,30.5,0,0,996.4,1010.2
297,2024-05-13T04:56:00,3.6,北北西,7.6,北西,14.9,91.8,0,1,15.5,30.5,0,0,996.3,1010.1
298,2024-05-13T04:57:00,3.6,北北西,9,北北東,14.9,92.3,0,1,15.5,30.5,0,0,996.3,1010.1
299,2024-05-13T04:58:00,3.6,北,9,北北東,14.9,92.5,0,1,15.5,30.5,0,0,996.3,1010.1
300,2024-05-13T04:59:00,3.8,北,9.1,北北東,14.9,92.8,0,1,15.5,30.5,0,0,996.3,1010.1
301,2024-05-13T05:00:00,4.1,北,9.5,北北東,14.9,92.7,0,1,15.5,30.5,0,0,996.4,1010.2
302,2024-05-13T05:01:00,4.4,北,10,北,14.8,92.3,0,1,15.5,30.5,0,0,996.5,1010.3
303,2024-05-13T05:02:00,4.5,北,10,北,14.7,91.2,0,1,15.5,30.5,0,0,996.5,1010.3
304,2024-05-13T05:03:00,4.5,北,10,北,14.7,91,0,1,15.5,30.5,0,0,996.6,1010.4
305,2024-05-13T05:04:00,4.6,北,10,北,14.6,90.9,0,1,15.5,30.5,0,0,996.5,1010.3
306,2024-05-13T05:05:00,4.7,北,10,北,14.6,91.1,0,1,15.5,30.5,0,0,996.5,1010.3
307,2024-05-13T05:06:00,4.7,北,10,北,14.5,91.1,0,0.5,15.5,30.5,0,0,996.5,1010.3